星链-5675 (STARLINK-5675 )

导读

STARLINK-5675是美国SpaceX星链星座的卫星,于2023年1月26日发射升空,归属星链低轨互联网卫星组网序列。它工作在近地轨道,承担全球互联网覆盖服务任务,属于SpaceX批量发射的星链卫星之一,服务包括偏远地区网络接入、移动网络互联等应用场景,支撑星链星座全球通信网络的构建。

Basic Information
目录编号:
55340
目录名称:
STARLINK-5675
国际标识:
2023-013K
轨道中心:
EARTH
卫星名称:
星链-5675
卫星全名:
星链-5675 (STARLINK-5675 )
卫星状态:
在轨 (已飞行1236 天)
发射日期:
2023-01-26 UTC
国别 :
美国 (US)
星等 :
--
Orbit Information
数据来源 国际轨道数据 AOE轨道数据
星历时间 2026-06-14T21:49:02+0800
15小时前
查看轨道信息
2026-06-15T00:00:00+0800
13小时前
查看轨道信息
半长轴 6861.196km 6861.157km
偏心率 0.00017 0.0001495
轨道倾角 43.012° 43.001°
近地点辐角 275.911° 228.861°
升交点赤经 116.014° 115.498°
平近点角 84.155° 271.941°
近地点 481.892km 481.994km
远地点 484.226km 484.046km
周期 94.267分钟 94.266分钟
每日圈数 15.275769 15.2759
Detailed Information
固有亮度:
5
最大亮度:
2.5
卫星平台:
Starlink v1.5
覆盖范围:
全球
运营商:
太空探索技术公司
运营商所在国:
美国
制造商(研发单位):
太空探索技术公司
制造商所在国:
美国
使用方式:
暂无
Satellite Introduction
星链(Starlink)计划是由太空探索技术公司(SpaceX)提出的一个巨型低轨卫星互联网星座项目,计划在2019年至2024年间在太空搭建由约1.2万颗卫星组成的“星链”网络,其中1584颗将部署在地球上空550千米处的近地轨道,并从2020年开始工作。该卫星仍在工作。
2D Orbit Map
3D Orbit Map
Orbit Altitude Analysis Chart
Orbit Inclination Analysis Chart
Orbit Comprehensive Analysis Chart
View Comprehensive Chart